Regional Weather Roundup
Issued by NWS

Home | Current Version | Previous Version | Text Only | Print | Product List | Glossary Off
Versions: 1 2 3 4 5 6 7 8 9 10 11 12 13 14 15 16 17 18 19 20 21 22 23 24 25 26 27 28 29 30 31 32 33 34 35 36 37 38 39 40 41 42 43 44 45 46 47 48 49 50

000
ASUS43 KOAX 060610
RWRNE

WEATHER ROUNDUP FOR NEBRASKA
NATIONAL WEATHER SERVICE OMAHA NE
100 AM CDT WED MAY 06 2015

NOTES: SATELLITE DATA IS BEING USED TO AUGMENT CLOUD COVER ABOVE
       12000 FEET.
       "FAIR" INDICATES FEW OR NO CLOUDS BELOW 12,000 FEET WITH NO
       SIGNIFICANT WEATHER AND/OR OBSTRUCTIONS TO VISIBILITY.

  * THESE STATIONS DO NOT REPORT WEATHER SUCH AS RAIN...SNOW OR FOG.

NEZ001>004-019>022-054>056-060700-
NEBRASKA PANHANDLE

CITY           SKY/WX    TMP DP  RH WIND       PRES   REMARKS
SCOTTSBLUFF    CLOUDY    53  50  90 SE14      29.77F
6HR MIN TEMP:  53; 6HR MAX TEMP:  55; 6HR PCP:  0.08;

CHADRON        CLOUDY    56  50  80 SE6       29.80F
6HR MIN TEMP:  55; 6HR MAX TEMP:  62; 6HR PCP:  0.01;

KIMBALL        LGT RAIN  51  51 100 E15       29.74F
SIDNEY         LGT RAIN  51  50  96 E16       29.76F FOG
6HR MIN TEMP:  51; 6HR MAX TEMP:  54; 6HR PCP:  0.27;

$$

NEZ057>060-069>072-079>082-060700-
SOUTHWEST NEBRASKA

CITY           SKY/WX    TMP DP  RH WIND       PRES   REMARKS
NORTH PLATTE   LGT RAIN  55  54  96 E14       29.79F
6HR MIN TEMP:  54; 6HR MAX TEMP:  62; 6HR PCP:  0.08;

IMPERIAL       CLOUDY    56  55  97 SE13      29.75F
6HR MIN TEMP:  54; 6HR MAX TEMP:  57; 6HR PCP:  0.05;

LEXINGTON      CLOUDY    59  57  94 SE17G24   29.83F
MCCOOK         LGT RAIN  60  57  89 SE16G29   29.77F
6HR MIN TEMP:  57; 6HR MAX TEMP:  62; 6HR PCP:  0.11;

OGALLALA       LGT RAIN  55  54  97 E10G16    29.77F
$$

NEZ005>010-023>029-035>040-094-060700-
NORTH CENTRAL NEBRASKA

CITY           SKY/WX    TMP DP  RH WIND       PRES   REMARKS
VALENTINE      CLOUDY    57  55  93 E7        29.84F
6HR MIN TEMP:  56; 6HR MAX TEMP:  61; 6HR PCP:  0.25;

AINSWORTH      CLOUDY    57  54  88 SE10      29.87F
BROKEN BOW     LGT RAIN  58  55  90 SE16      29.85F FOG
6HR MIN TEMP:  57; 6HR MAX TEMP:  67; 6HR PCP:  0.06;

O`NEILL        CLOUDY    63  57  83 SE12G17   29.91F
ORD            LGT RAIN  58  55  90 E9        29.87F
6HR MIN TEMP:  58; 6HR MAX TEMP:  71; 6HR PCP:  0.01;

THEDFORD       LGT RAIN  56  55  95 SE17G24   29.84F
$$

NEZ041-046>049-061>064-073>077-083>087-060700-
SOUTH CENTRAL NEBRASKA

CITY           SKY/WX    TMP DP  RH WIND       PRES   REMARKS
GRAND ISLAND   CLOUDY    60  56  86 SE12      29.90F
6HR MIN TEMP:  60; 6HR MAX TEMP:  71; 6HR PCP: TRACE;

AURORA         CLOUDY    62  58  87 SE12      29.91F
HASTINGS       LGT RAIN  61  57  87 SE15G22   29.89F
6HR MIN TEMP:  60; 6HR MAX TEMP:  71; 6HR PCP:  0.03;

HEBRON         CLOUDY    63  57  81 SE6       29.91F
HOLDREGE       CLOUDY    59  57  93 SE20G25   29.85F
KEARNEY *      CLOUDY    59  55  88 SE16      29.87F
YORK           CLOUDY    63  59  88 SE12      29.92F
$$

NEZ011>018-030>034-042>045-060700-
NORTHEAST NEBRASKA

CITY           SKY/WX    TMP DP  RH WIND       PRES   REMARKS
NORFOLK        LGT RAIN  62  60  93 S13       29.93F
6HR MIN TEMP:  63; 6HR MAX TEMP:  73; 6HR PCP:  0.09;

ALBION         DRIZZLE   60  58  93 SE8       29.91F
BLAIR          CLOUDY    66  56  69 S16       29.98S
COLUMBUS *     CLOUDY    63  55  77 SE6       29.95F
FREMONT        CLOUDY    67  58  74 SE15G24   29.97S
TEKAMAH        CLOUDY    67  58  72 SE14      29.96S
6HR MIN TEMP:  67; 6HR MAX TEMP:  76;

WAYNE          CLOUDY    66  58  76 SE15      29.95S
$$

NEZ050>053-065>068-078-088>093-060700-
SOUTHEAST NEBRASKA

CITY           SKY/WX    TMP DP  RH WIND       PRES   REMARKS
LINCOLN        CLOUDY    65  60  84 SE15      29.96F
6HR MIN TEMP:  65; 6HR MAX TEMP:  74; 6HR PCP:  0.04;

OMAHA EPPLEY   CLOUDY    67  58  72 SE15      29.98S
6HR MIN TEMP:  67; 6HR MAX TEMP:  75; 6HR PCP: TRACE;

BEATRICE       CLOUDY    64  60  87 SE13      29.95F
FALLS CITY     HVY RAIN  64  62  93 SE17      30.01R
6HR MIN TEMP:  64; 6HR MAX TEMP:  75; 6HR PCP:  0.42;

NEBRASKA CITY  RAIN      64  60  88 S17       30.00S
PLATTSMOUTH    CLOUDY    65  58  79 SE10      29.99S
$$

NEZ044-045-051>053-067-060700-
OMAHA AREA

CITY           SKY/WX    TMP DP  RH WIND       PRES   REMARKS
OMAHA EPPLEY   CLOUDY    67  58  72 SE15      29.98S
6HR MIN TEMP:  67; 6HR MAX TEMP:  75; 6HR PCP: TRACE;

BLAIR          CLOUDY    66  56  69 S16       29.98S
FREMONT        CLOUDY    67  58  74 SE15G24   29.97S
MILLARD        CLOUDY    67  59  76 SE9       29.98S
OFFUTT AFB     CLOUDY    66  58  75 SE10      29.98R
PLATTSMOUTH    CLOUDY    65  58  79 SE10      29.99S
$$



USA.gov is the U.S. government's official web portal to all federal, state and local government web resources and services.